N1OTX Weather Reports


Display with metric or nautical units.
time (UTC)temp
F
wind
direction
speed
MPH
gust
MPH
rain 1hr
in
rain 24hr
in
rain mn
in
humidity
%
barometer
mb
20211023083516 51 0 1.0 4.0 0.00 0.00 0.00 72 1012.4
20211023083016 51 0 2.0 6.0 0.00 0.00 0.00 73 1012.4
20211023082516 51 45 1.0 6.0 0.00 0.00 0.00 73 1012.5
20211023082016 51 0.0 2.0 0.00 0.00 0.00 73 1012.5
20211023081516 51 0 1.0 3.0 0.00 0.00 0.00 73 1012.6
20211023081016 51 338 1.0 3.0 0.00 0.00 0.00 73 1012.6
20211023080516 51 0.0 2.0 0.00 0.00 0.00 74 1012.6
20211023080016 51 0.0 1.0 0.00 0.00 0.00 74 1012.6
20211023075516 51 0.0 1.0 0.00 0.00 0.00 74 1012.5
20211023075016 51 0.0 2.0 0.00 0.00 0.00 74 1012.4
20211023074516 51 315 1.0 3.0 0.00 0.00 0.00 73 1012.5
20211023074016 51 0 1.0 5.0 0.00 0.00 0.00 73 1012.5
20211023073516 51 0.0 2.0 0.00 0.00 0.00 73 1012.5
20211023073016 52 0 1.0 4.0 0.00 0.00 0.00 73 1012.5
20211023072516 52 0 1.0 3.0 0.00 0.00 0.00 73 1012.6
20211023072016 52 0 1.0 4.0 0.00 0.00 0.00 73 1012.6
20211023071516 52 338 1.0 3.0 0.00 0.00 0.00 73 1012.6
20211023071016 52 0.0 2.0 0.00 0.00 0.00 73 1012.6
20211023070516 52 0.0 1.0 0.00 0.00 0.00 73 1012.6
20211023070016 52 0.0 2.0 0.00 0.00 0.00 73 1012.6
20211023065516 52 0.0 1.0 0.00 0.00 0.00 73 1012.6
20211023065016 52 0.0 1.0 0.00 0.00 0.00 73 1012.6
20211023064516 52 0.0 1.0 0.00 0.00 0.00 72 1012.6
20211023064016 52 0.0 1.0 0.00 0.00 0.00 72 1012.5
20211023063516 52 0.0 1.0 0.00 0.00 0.00 72 1012.6
20211023063016 52 0.0 2.0 0.00 0.00 0.00 72 1012.6
20211023062516 52 0.0 1.0 0.00 0.00 0.00 72 1012.6
20211023062016 52 338 1.0 5.0 0.00 0.00 0.00 72 1012.6
20211023061516 52 0.0 0.0 0.00 0.00 0.00 72 1012.5
20211023061016 52 0.0 0.0 0.00 0.00 0.00 72 1012.5
20211023060516 52 0.0 1.0 0.00 0.00 0.00 71 1012.5
20211023060016 52 0.0 1.0 0.00 0.00 0.00 72 1012.6
20211023055516 52 0.0 2.0 0.00 0.00 0.00 72 1012.6
20211023055016 52 0.0 1.0 0.00 0.00 0.00 72 1012.6
20211023054516 52 0.0 1.0 0.00 0.00 0.00 72 1012.6
20211023054016 52 0.0 2.0 0.00 0.00 0.00 72 1012.5
20211023053516 52 0.0 3.0 0.00 0.00 0.00 72 1012.4
20211023053016 52 0.0 1.0 0.00 0.00 0.00 72 1012.4
20211023052516 52 0.0 1.0 0.00 0.00 0.00 72 1012.4
20211023052016 52 0.0 0.0 0.00 0.00 0.00 72 1012.4
20211023051516 52 0.0 0.0 0.00 0.00 0.00 72 1012.3
20211023051016 52 0.0 0.0 0.00 0.00 0.00 72 1012.3
20211023050516 52 0.0 0.0 0.00 0.00 0.00 72 1012.3
20211023050016 52 0.0 2.0 0.00 0.00 0.00 73 1012.3
20211023045516 53 0.0 1.0 0.00 0.00 0.00 73 1012.4
20211023045016 53 0.0 1.0 0.00 0.00 0.00 73 1012.4
20211023044516 53 0.0 1.0 0.00 0.00 0.00 73 1012.4
20211023044016 53 0.0 1.0 0.00 0.00 0.00 73 1012.3
20211023043516 53 0.0 2.0 0.00 0.00 0.00 73 1012.3
20211023043016 53 0.0 0.0 0.00 0.00 0.00 74 1012.2
20211023042516 53 0.0 0.0 0.00 0.00 0.00 73 1012.1
20211023042016 53 0.0 0.0 0.00 0.00 0.00 73 1012.1
20211023041516 53 0.0 1.0 0.00 0.00 0.00 73 1012.1
20211023041016 53 0.0 0.0 0.00 0.00 0.00 73 1012.0
20211023040516 53 0.0 0.0 0.00 0.00 0.00 72 1012.2
20211023040016 53 0.0 0.0 0.00 0.00 0.00 72 1012.1
20211023035516 53 0.0 1.0 0.00 0.00 0.00 72 1012.3
20211023035016 53 0.0 0.0 0.00 0.00 0.00 72 1012.2
20211023034516 53 0.0 1.0 0.00 0.00 0.00 72 1012.3
20211023034016 53 0.0 2.0 0.00 0.00 0.00 72 1012.3
20211023033516 53 0.0 2.0 0.00 0.00 0.00 72 1012.4
20211023033016 53 0.0 2.0 0.00 0.00 0.00 73 1012.4
20211023032516 53 0.0 1.0 0.00 0.00 0.00 73 1012.5
20211023032016 53 0.0 0.0 0.00 0.00 0.00 73 1012.6
20211023031516 53 0.0 1.0 0.00 0.00 0.00 72 1012.5
20211023031016 53 0.0 1.0 0.00 0.00 0.00 73 1012.4
20211023030516 53 0.0 2.0 0.00 0.00 0.00 73 1012.3
20211023030016 53 0.0 2.0 0.00 0.00 0.00 73 1012.3
20211023025516 53 0.0 4.0 0.00 0.00 0.00 73 1012.2
20211023025016 53 338 1.0 3.0 0.00 0.00 0.00 73 1012.0
20211023024516 54 0.0 1.0 0.00 0.00 0.00 73 1011.9
20211023024016 54 0.0 1.0 0.00 0.00 0.00 73 1012.0
20211023023516 54 0.0 1.0 0.00 0.00 0.00 74 1012.1
20211023023016 54 0.0 1.0 0.00 0.00 0.00 74 1012.2
20211023022516 54 0.0 0.0 0.00 0.00 0.00 74 1012.2
20211023022016 55 0.0 0.0 0.00 0.00 0.00 72 1012.2
20211023021516 55 0.0 0.0 0.00 0.00 0.00 72 1012.2
20211023021016 55 0.0 0.0 0.00 0.00 0.00 71 1012.2
20211023020516 56 0.0 0.0 0.00 0.00 0.00 71 1012.1
20211023020016 56 0.0 0.0 0.00 0.00 0.00 70 1012.1
20211023015516 56 0.0 0.0 0.00 0.00 0.00 70 1012.1
20211023015016 57 0.0 0.0 0.00 0.00 0.00 70 1012.2
20211023014516 57 0.0 0.0 0.00 0.00 0.00 70 1012.1
20211023014016 57 0.0 0.0 0.00 0.00 0.00 69 1011.9
20211023013516 57 0.0 0.0 0.00 0.00 0.00 69 1011.9
20211023013016 57 0.0 3.0 0.00 0.00 0.00 69 1011.9
20211023012516 58 0.0 2.0 0.00 0.00 0.00 69 1011.9
20211023012016 58 0.0 2.0 0.00 0.00 0.00 69 1011.8
20211023011516 58 0.0 2.0 0.00 0.00 0.00 69 1011.7
20211023011016 58 0.0 2.0 0.00 0.00 0.00 69 1011.7
20211023010516 58 0.0 2.0 0.00 0.00 0.00 69 1011.7
20211023010016 59 45 1.0 2.0 0.00 0.00 0.00 69 1011.6
20211023005516 59 0.0 2.0 0.00 0.00 0.00 68 1011.6
20211023005016 59 0.0 1.0 0.00 0.00 0.00 69 1011.5
20211023004516 59 0.0 1.0 0.00 0.00 0.00 69 1011.5
20211023004015 59 0.0 2.0 0.00 0.00 0.00 69 1011.5
20211023003516 60 0.0 4.0 0.00 0.00 0.00 69 1011.5
20211023003016 60 0.0 1.0 0.00 0.00 0.00 69 1011.4
20211023002516 60 0.0 1.0 0.00 0.00 0.00 69 1011.4
20211023002016 60 315 1.0 2.0 0.00 0.00 0.00 69 1011.4
20211023001516 60 0.0 2.0 0.00 0.00 0.00 70 1011.4
20211023001016 60 23 1.0 6.0 0.00 0.00 0.00 70 1011.4
20211023000516 60 0 1.0 4.0 0.00 0.00 0.00 71 1011.4
20211023000016 60 0.0 1.0 0.00 0.00 0.00 73 1011.4
20211022235516 60 0.0 4.0 0.00 0.00 0.00 74 1011.4
20211022235016 60 0.0 3.0 0.00 0.00 0.00 74 1011.4
20211022234516 60 0.0 2.0 0.00 0.00 0.00 75 1011.3
20211022234016 60 0.0 3.0 0.00 0.00 0.00 77 1011.2
20211022233516 60 0.0 1.0 0.00 0.00 0.00 77 1011.2
20211022233016 59 0.0 0.0 0.00 0.00 0.00 78 1011.1
20211022232515 59 0.0 1.0 0.00 0.00 0.00 78 1011.1
20211022232016 59 0.0 2.0 0.00 0.00 0.00 78 1011.0
20211022231515 59 0.0 0.0 0.00 0.00 0.00 78 1010.9
20211022231015 59 0.0 0.0 0.00 0.00 0.00 78 1010.9
20211022230515 60 0.0 0.0 0.00 0.00 0.00 77 1010.8
20211022230015 60 0.0 0.0 0.00 0.00 0.00 77 1010.7
20211022225516 60 0.0 1.0 0.00 0.00 0.00 76 1010.6
20211022225016 60 0.0 0.0 0.00 0.00 0.00 76 1010.5
20211022224516 60 0.0 0.0 0.00 0.00 0.00 76 1010.3
20211022224016 60 0.0 0.0 0.00 0.00 0.00 76 1010.2
20211022223515 60 0.0 0.0 0.00 0.00 0.00 75 1010.2
20211022223015 61 0.0 0.0 0.00 0.00 0.00 75 1010.1
20211022222516 61 0.0 0.0 0.00 0.00 0.00 74 1010.1
20211022222015 61 0.0 0.0 0.00 0.00 0.00 74 1010.1
20211022221515 62 0.0 0.0 0.00 0.00 0.00 73 1010.1
20211022221016 62 0.0 0.0 0.00 0.00 0.00 72 1010.0
20211022220515 62 0.0 0.0 0.00 0.00 0.00 72 1010.0
20211022220016 62 0.0 0.0 0.00 0.00 0.00 72 1009.9
20211022215515 63 0.0 0.0 0.00 0.00 0.00 72 1009.9
20211022215015 63 0.0 0.0 0.00 0.00 0.00 72 1009.8
20211022214516 63 0.0 0.0 0.00 0.00 0.00 72 1009.8
20211022214015 63 0.0 0.0 0.00 0.00 0.00 72 1009.9
20211022213515 63 0.0 0.0 0.00 0.00 0.00 72 1009.8
20211022213015 63 0.0 0.0 0.00 0.00 0.00 71 1009.8
20211022212515 63 0.0 0.0 0.00 0.00 0.00 71 1009.9
20211022212015 63 0.0 0.0 0.00 0.00 0.00 71 1009.9
20211022211515 63 0.0 0.0 0.00 0.00 0.00 71 1009.8
20211022211015 63 0.0 0.0 0.00 0.00 0.00 71 1009.6
20211022210515 64 0.0 0.0 0.00 0.00 0.00 69 1009.5
20211022210015 64 0.0 1.0 0.00 0.00 0.00 68 1009.5
20211022205515 65 0.0 1.0 0.00 0.00 0.00 67 1009.5
20211022205015 65 293 1.0 4.0 0.00 0.00 0.00 65 1009.5
20211022204515 66 270 1.0 3.0 0.00 0.00 0.00 63 1009.6
20211022204015 67 293 1.0 5.0 0.00 0.00 0.00 60 1009.5
20211022203515 67 0.0 2.0 0.00 0.00 0.00 61 1009.5
20211022203015 68 0 2.0 4.0 0.00 0.00 0.00 59 1009.6
20211022202515 68 338 1.0 6.0 0.00 0.00 0.00 62 1009.5
20211022202015 68 135 1.0 6.0 0.00 0.00 0.00 61 1009.5
20211022201515 68 315 1.0 7.0 0.00 0.00 0.00 60 1009.5
20211022201015 68 248 1.0 4.0 0.00 0.00 0.00 61 1009.5
20211022200515 68 248 1.0 7.0 0.00 0.00 0.00 59 1009.4
20211022200015 68 225 2.0 7.0 0.00 0.00 0.00 59 1009.4
20211022195515 68 23 1.0 5.0 0.00 0.00 0.00 61 1009.4
20211022195015 68 293 1.0 5.0 0.00 0.00 0.00 61 1009.4
20211022194515 68 0.0 2.0 0.00 0.00 0.00 58 1009.4
20211022194015 68 293 1.0 7.0 0.00 0.00 0.00 58 1009.4
20211022193515 68 293 1.0 4.0 0.00 0.00 0.00 61 1009.4
20211022193015 69 203 1.0 4.0 0.00 0.00 0.00 62 1009.4
20211022192515 69 45 2.0 5.0 0.00 0.00 0.00 59 1009.4
20211022192015 69 293 2.0 7.0 0.00 0.00 0.00 57 1009.4
20211022191515 70 203 3.0 7.0 0.00 0.00 0.00 56 1009.3
20211022191015 70 203 3.0 7.0 0.00 0.00 0.00 58 1009.2
20211022190515 69 203 2.0 7.0 0.00 0.00 0.00 58 1009.2
20211022190015 68 248 2.0 7.0 0.00 0.00 0.00 57 1009.2
20211022185515 69 203 3.0 8.0 0.00 0.00 0.00 58 1009.2
20211022185015 69 0 2.0 5.0 0.00 0.00 0.00 56 1009.3
20211022184515 70 203 3.0 11.0 0.00 0.00 0.00 57 1009.3
20211022184015 70 68 1.0 5.0 0.00 0.00 0.00 58 1009.2
20211022183515 71 203 4.0 12.0 0.00 0.00 0.00 55 1009.2
20211022183015 70 203 3.0 8.0 0.00 0.00 0.00 57 1009.2
20211022182515 70 180 2.0 9.0 0.00 0.00 0.00 58 1009.1
20211022182015 70 203 3.0 11.0 0.00 0.00 0.00 58 1009.1
20211022181515 69 225 2.0 6.0 0.00 0.00 0.00 61 1009.1
20211022181015 68 68 1.0 3.0 0.00 0.00 0.00 61 1009.1
20211022180515 68 225 2.0 7.0 0.00 0.00 0.00 61 1009.1
20211022180015 70 203 3.0 11.0 0.00 0.00 0.00 57 1009.1
20211022175515 71 225 2.0 7.0 0.00 0.00 0.00 58 1009.1
20211022175015 72 270 2.0 8.0 0.00 0.00 0.00 57 1009.1
20211022174515 71 180 3.0 8.0 0.00 0.00 0.00 57 1009.1
20211022174015 70 203 2.0 7.0 0.00 0.00 0.00 59 1009.0
20211022173515 69 203 1.0 8.0 0.00 0.00 0.00 60 1009.1
20211022173015 69 293 3.0 9.0 0.00 0.00 0.00 60 1009.0
20211022172515 70 180 3.0 9.0 0.00 0.00 0.00 60 1009.0
20211022172015 70 180 4.0 9.0 0.00 0.00 0.00 59 1008.9
20211022171515 69 203 4.0 8.0 0.00 0.00 0.00 59 1008.9
20211022171015 69 203 4.0 10.0 0.00 0.00 0.00 60 1008.9
20211022170515 68 270 2.0 12.0 0.00 0.00 0.00 61 1009.0
20211022170015 68 203 5.0 11.0 0.00 0.00 0.00 61 1009.0
20211022165515 69 225 3.0 8.0 0.00 0.00 0.00 60 1009.0
20211022165015 71 203 4.0 9.0 0.00 0.00 0.00 58 1008.9
20211022164515 70 180 3.0 7.0 0.00 0.00 0.00 59 1008.9
20211022164015 70 203 3.0 8.0 0.00 0.00 0.00 60 1008.9
20211022163515 69 338 2.0 5.0 0.00 0.00 0.00 60 1008.9
20211022163015 69 23 1.0 7.0 0.00 0.00 0.00 61 1008.9
20211022162515 70 315 1.0 5.0 0.00 0.00 0.00 58 1008.9
20211022162015 69 270 2.0 6.0 0.00 0.00 0.00 62 1009.1
20211022161515 69 270 2.0 9.0 0.00 0.00 0.00 61 1008.9
20211022161015 69 225 4.0 14.0 0.00 0.00 0.00 60 1009.0
20211022160515 69 248 2.0 7.0 0.00 0.00 0.00 61 1009.0
20211022160015 69 293 1.0 7.0 0.00 0.00 0.00 61 1008.9
20211022155515 69 180 2.0 12.0 0.00 0.00 0.00 63 1008.9
20211022155015 69 225 2.0 7.0 0.00 0.00 0.00 65 1008.9
20211022154515 69 180 2.0 8.0 0.00 0.00 0.00 64 1008.8
20211022154015 69 0 3.0 7.0 0.00 0.00 0.00 63 1008.8
20211022153515 68 293 3.0 8.0 0.00 0.00 0.00 64 1008.9
20211022153015 68 225 3.0 11.0 0.00 0.00 0.00 63 1008.9
20211022152515 69 225 4.0 12.0 0.00 0.00 0.00 65 1008.9
20211022152015 69 338 3.0 9.0 0.00 0.00 0.00 63 1008.8
20211022151515 69 225 2.0 8.0 0.00 0.00 0.00 63 1008.8
20211022151017 68 203 3.0 9.0 0.00 0.00 0.00 64 1008.8
20211022150517 68 203 2.0 8.0 0.00 0.00 0.00 65 1008.9
20211022150017 68 90 2.0 9.0 0.00 0.00 0.00 67 1008.9
20211022145517 68 338 2.0 11.0 0.00 0.00 0.00 67 1008.9
20211022145017 68 180 5.0 11.0 0.00 0.00 0.00 68 1008.9
20211022144517 68 225 4.0 11.0 0.00 0.00 0.00 68 1008.8
20211022144017 68 315 2.0 9.0 0.00 0.00 0.00 70 1008.7
20211022143517 68 203 1.0 5.0 0.00 0.00 0.00 70 1008.7
20211022143017 67 180 2.0 6.0 0.00 0.00 0.00 71 1008.7
20211022142517 67 270 1.0 7.0 0.00 0.00 0.00 71 1008.7
20211022142017 67 203 4.0 10.0 0.00 0.00 0.00 71 1008.6
20211022141517 67 203 3.0 7.0 0.00 0.00 0.00 74 1008.5
20211022141017 67 225 4.0 11.0 0.00 0.00 0.00 74 1008.5
20211022140517 67 225 3.0 9.0 0.00 0.00 0.00 76 1008.5
20211022140017 67 248 3.0 9.0 0.00 0.00 0.00 76 1008.4
20211022135517 67 203 2.0 12.0 0.00 0.00 0.00 76 1008.4
20211022135017 67 203 2.0 6.0 0.00 0.00 0.00 77 1008.4
20211022134517 66 203 2.0 8.0 0.00 0.00 0.00 78 1008.4
20211022134017 66 225 4.0 11.0 0.00 0.00 0.00 79 1008.3
20211022133517 66 158 3.0 10.0 0.00 0.00 0.00 80 1008.3
20211022133017 66 180 4.0 15.0 0.00 0.00 0.00 79 1008.2
20211022132517 66 180 3.0 8.0 0.00 0.00 0.00 79 1008.2
20211022132017 66 180 3.0 11.0 0.00 0.00 0.00 80 1008.1
20211022131517 65 203 3.0 8.0 0.00 0.00 0.00 81 1008.1
20211022131017 65 203 3.0 11.0 0.00 0.00 0.00 81 1008.1
20211022130517 65 203 4.0 8.0 0.00 0.00 0.00 82 1008.0
20211022130017 65 203 4.0 8.0 0.00 0.00 0.00 83 1008.0
20211022125517 65 225 4.0 12.0 0.00 0.00 0.00 83 1007.8
20211022125017 64 203 2.0 5.0 0.00 0.00 0.00 84 1007.8
20211022124517 64 180 1.0 5.0 0.00 0.00 0.00 85 1007.7
20211022124017 64 180 1.0 6.0 0.00 0.00 0.00 86 1007.7
20211022123517 63 203 3.0 7.0 0.00 0.00 0.00 86 1007.6
20211022123017 63 203 1.0 6.0 0.00 0.00 0.00 87 1007.6
20211022122517 63 203 4.0 8.0 0.00 0.00 0.00 87 1007.5
20211022122017 62 180 1.0 6.0 0.00 0.00 0.00 88 1007.5
20211022121517 62 180 2.0 5.0 0.00 0.00 0.00 88 1007.3
20211022121017 62 203 4.0 9.0 0.00 0.00 0.00 88 1007.2
20211022120516 62 203 2.0 7.0 0.00 0.00 0.00 88 1007.1
20211022120017 62 203 1.0 5.0 0.00 0.00 0.00 89 1006.9
20211022115517 61 203 1.0 7.0 0.00 0.00 0.00 90 1006.9
20211022115029 61 203 1.0 6.0 0.00 0.00 0.00 90 1006.8
20211022114516 61 203 1.0 5.0 0.00 0.00 0.00 90 1006.8
20211022114017 61 203 1.0 3.0 0.00 0.00 0.00 90 1006.7
20211022113517 61 203 1.0 4.0 0.00 0.00 0.00 90 1006.7
20211022113016 61 203 2.0 6.0 0.00 0.00 0.00 90 1006.5
20211022112517 61 0.0 2.0 0.00 0.00 0.00 90 1006.6
20211022112016 61 0.0 5.0 0.00 0.00 0.00 90 1006.5
20211022111517 61 180 1.0 9.0 0.00 0.00 0.00 90 1006.4
20211022111017 61 203 3.0 7.0 0.00 0.00 0.00 90 1006.3
20211022110516 61 180 2.0 5.0 0.00 0.00 0.00 90 1006.2
20211022110017 61 180 2.0 7.0 0.00 0.00 0.00 90 1006.3
20211022105517 61 180 3.0 8.0 0.00 0.00 0.00 90 1006.2
20211022105017 61 203 2.0 7.0 0.00 0.00 0.00 89 1006.2
20211022104516 61 180 2.0 7.0 0.00 0.00 0.00 89 1006.3
20211022104017 61 158 3.0 9.0 0.00 0.00 0.00 89 1006.3
20211022103516 61 180 1.0 7.0 0.00 0.00 0.00 89 1006.4
20211022103016 61 203 3.0 8.0 0.00 0.00 0.00 89 1006.3
20211022102517 61 180 3.0 11.0 0.00 0.00 0.00 89 1006.4
20211022102017 61 203 5.0 10.0 0.00 0.00 0.00 89 1006.5
20211022101516 61 225 3.0 7.0 0.00 0.00 0.00 89 1006.6
20211022101016 61 203 3.0 9.0 0.00 0.00 0.00 89 1006.5
20211022100516 61 203 2.0 8.0 0.00 0.00 0.00 90 1006.4
20211022100016 61 225 3.0 7.0 0.00 0.00 0.00 89 1006.5
20211022095516 61 180 3.0 10.0 0.00 0.00 0.00 90 1006.5
20211022095016 61 180 2.0 6.0 0.00 0.00 0.00 90 1006.5
20211022094516 61 203 3.0 11.0 0.00 0.00 0.00 90 1006.5
20211022094016 61 180 4.0 11.0 0.00 0.00 0.00 90 1006.4
20211022093516 61 203 2.0 6.0 0.00 0.00 0.00 90 1006.4
20211022093016 60 203 4.0 10.0 0.00 0.00 0.00 90 1006.4
20211022092516 60 203 4.0 10.0 0.00 0.00 0.00 90 1006.3
20211022092016 60 180 4.0 10.0 0.00 0.00 0.00 90 1006.4
20211022091517 60 203 3.0 8.0 0.00 0.00 0.00 90 1006.4
20211022091016 60 180 4.0 8.0 0.00 0.00 0.00 90 1006.4
20211022090516 60 203 3.0 7.0 0.00 0.00 0.00 90 1006.5
20211022090016 60 203 2.0 8.0 0.00 0.00 0.00 90 1006.6
20211022085516 59 203 3.0 8.0 0.00 0.00 0.00 90 1006.6
20211022085016 59 203 2.0 7.0 0.00 0.00 0.00 90 1006.7
20211022084516 59 203 1.0 5.0 0.00 0.00 0.00 90 1006.5
20211022084016 59 180 2.0 7.0 0.00 0.00 0.00 90 1006.5